IVALO current weather conditions

sailwx.info

Wind from 170 at 4 knots

Air temperature 1.0° C
Visibility: greater than 5.4 NM
Dewpoint -0.0° C
Present weather: Light rain.

Last reported at 2014-Oct-25 17:20 UTC.
Time now 2014-Oct-25 19:10 UTC

Location: N 68°37' E 027°25'.
View on Google Maps.

See reports from other nearby stations

  
Tides and Currents Weather Stations Pressure Air Temp Water Temp Dewpoint Dewpoint Depression Visibility Wind Speed Wind Dir Waves Ship Positions
date/time (UTC)wind fromknots sea level pressurealtimeterstation pressurevisibilityair tempwater tempwave heightnotes
2014-Oct-25 18:20 180 5 5.4 2.0 Light rain showers.
2014-Oct-25 17:50 190 5 5.4 2.0 Light rain.
2014-Oct-25 17:20 170 4 5.4 1.0 Light rain.
2014-Oct-25 16:50 170 5 5.4 1.0 Light rain.
2014-Oct-25 16:20 160 6 5.4 1.0
2014-Oct-25 15:50 150 6 5.4 1.0
2014-Oct-25 15:20 160 6 5.4 1.0
2014-Oct-25 14:50 160 8 5.4 1.0
2014-Oct-25 14:20 150 7 5.4 1.0
2014-Oct-25 13:50 170 4 5.4 1.0 Light rain showers.
2014-Oct-25 13:20 150 6 5.4 1.0 Light precipitation.
2014-Oct-25 12:50 150 6 5.4 1.0
2014-Oct-25 12:20 150 6 5.4 1.0
2014-Oct-25 11:50 170 5 5.4 1.0
2014-Oct-25 11:20 170 5 5.4 1.0
2014-Oct-25 10:50 170 4 5.4-0.0
2014-Oct-25 10:20 170 6 5.4-0.0
2014-Oct-25 09:50 170 5 5.4-0.0
2014-Oct-25 09:20 140 3 5.4-0.0
2014-Oct-25 08:50 150 4 5.4-0.0
2014-Oct-25 08:22 170 4 5.4-0.0
2014-Oct-25 07:50 170 5 5.4-0.0
2014-Oct-25 07:20 160 4 5.4-0.0
2014-Oct-25 06:50 170 3 5.4-1.0
2014-Oct-25 06:20 170 3 5.4-1.0
2014-Oct-25 05:50 180 5 5.4-1.0
2014-Oct-25 05:20 180 4 5.4-1.0
2014-Oct-25 04:50 190 6 5.4-1.0
2014-Oct-25 04:20 190 5 5.4-1.0
2014-Oct-25 03:50 180 6 5.4-1.0
2014-Oct-25 03:20 180 6 5.4-1.0
2014-Oct-25 02:50 170 8 5.4-1.0
2014-Oct-25 02:20 170 6 5.4-1.0
2014-Oct-25 01:50 170 5 5.4-1.0
2014-Oct-25 01:20 170 6 5.4-1.0
2014-Oct-25 00:50 170 6 4.3-1.0
2014-Oct-25 00:20 170 6 5.4-1.0
2014-Oct-24 23:50 170 7 5.4-1.0
2014-Oct-24 23:20 180 5 5.4-1.0
2014-Oct-24 22:50 180 6 5.4-1.0
2014-Oct-24 22:20 170 8 5.4-1.0
2014-Oct-24 21:50 170 7 5.4-1.0
2014-Oct-24 21:20 170 7 5.4-1.0
2014-Oct-24 20:50 180 6 5.4-1.0
2014-Oct-24 20:20 180 8 5.4-1.0
2014-Oct-24 19:50 180 10 5.4-1.0
2014-Oct-24 19:20 180 9 5.4-1.0
2014-Oct-24 18:50 180 9 5.4-2.0
2014-Oct-24 18:20 180 8 5.4-2.0
2014-Oct-24 17:50 180 8 5.4-2.0
2014-Oct-24 17:20 180 11 5.4-2.0
2014-Oct-24 16:50 190 8 5.4-2.0
2014-Oct-24 16:20 190 8 5.4-2.0 Light snow.
2014-Oct-24 15:50 170 7 3.8-2.0 Light snow.
2014-Oct-24 15:20 170 8 2.7-2.0 Light snow.
2014-Oct-24 14:50 170 8 3.8-2.0 Light snow.
2014-Oct-24 14:20 170 8 3.8-2.0 Light snow.
2014-Oct-24 13:50 170 9 5.4-2.0 Light snow.
2014-Oct-24 13:20 170 7 5.4-2.0 Light snow.
2014-Oct-24 12:50 170 9 5.4-2.0 Light precipitation.
2014-Oct-24 12:20 170 11 5.4-2.0
2014-Oct-24 11:50 180 10 5.4-2.0
2014-Oct-24 11:20 180 9 5.4-2.0
2014-Oct-24 10:50 180 8 5.4-2.0 Light snow showers.
2014-Oct-24 10:20 180 8 5.4-3.0 Light snow.
2014-Oct-24 09:50 180 9 5.4-3.0
2014-Oct-24 09:20 180 9 5.4-3.0
2014-Oct-24 08:50 180 9 5.4-4.0
2014-Oct-24 08:20 180 6 5.4-4.0
2014-Oct-24 07:50 180 6 5.4-4.0
2014-Oct-24 07:20 190 8 5.4-5.0
2014-Oct-24 06:50 180 7 5.4-5.0
2014-Oct-24 06:20 190 8 5.4-5.0
2014-Oct-24 05:50 190 11 gusting 20 5.4-5.0
2014-Oct-24 05:20 190 9 5.4-5.0
2014-Oct-24 04:50 180 9 5.4-5.0
2014-Oct-24 04:20 180 10 5.4-5.0
2014-Oct-24 03:50 180 10 5.4-6.0 Light snow grains.
2014-Oct-24 03:20 180 8 5.4-6.0 Light snow.
2014-Oct-24 02:50 190 8 3.8-6.0 Light snow.
2014-Oct-24 02:20 180 8 5.4-6.0 Light snow grains.
2014-Oct-24 01:50 180 6 5.4-6.0
2014-Oct-24 01:20 190 8 5.4-6.0
2014-Oct-24 00:50 200 8 5.4-6.0
2014-Oct-24 00:20 190 9 5.4-6.0
2014-Oct-23 23:50 190 9 5.4-6.0
2014-Oct-23 23:20 180 9 5.4-7.0
2014-Oct-23 22:50 180 8 5.4-7.0
2014-Oct-23 22:20 190 9 5.4-7.0
2014-Oct-23 21:50 200 6 5.4-7.0
2014-Oct-23 21:20 200 10 gusting 20 -7.0
2014-Oct-23 20:50 210 8 5.4-7.0
2014-Oct-23 20:20 200 7 5.4-7.0
2014-Oct-23 19:50 200 6 5.4-7.0
2014-Oct-23 19:20 190 9 -7.0